This is the latest recevied weather packets stored in our database for station/object KC3BHK-2. If no packets are shown the sender has not sent any weather packets the latest 10 day(s).
| Time | Temp. | Humidity | Pressure | Rain* | Wind** | Luminosity | Snow |
|---|---|---|---|---|---|---|---|
| 1777992053 | 25.56° C | - | - | 0 mm | 4.47 m/s, 191° | - | - |
| 1777991749 | 26.11° C | - | - | 0 mm | 3.58 m/s, 186° | - | - |
| 1777991444 | 25° C | - | - | 0 mm | 4.47 m/s, 195° | - | - |
| 1777991136 | 24.44° C | - | - | 0 mm | 4.02 m/s, 183° | - | - |
| 1777990832 | 25° C | - | - | 0 mm | 3.58 m/s, 207° | - | - |
| 1777989918 | 23.89° C | - | - | 0 mm | 3.58 m/s, 215° | - | - |
| 1777989614 | 23.33° C | - | - | 0 mm | 2.24 m/s, 181° | - | - |
| 1777989306 | 22.78° C | - | - | 0 mm | 3.13 m/s, 156° | - | - |
| 1777989002 | 22.22° C | - | - | 0 mm | 4.02 m/s, 173° | - | - |
| 1777988393 | 22.22° C | - | - | 0 mm | 1.79 m/s, 229° | - | - |
| 1777988088 | 22.22° C | - | - | 0 mm | 2.24 m/s, 139° | - | - |
| 1777987783 | 21.11° C | - | - | 0 mm | 3.13 m/s, 173° | - | - |
| 1777987476 | 20.56° C | - | - | 0 mm | 0.89 m/s, 146° | - | - |
| 1777987171 | 20.56° C | - | - | 0 mm | 0.89 m/s, 173° | - | - |
| 1777986865 | 20° C | - | - | 0 mm | 1.34 m/s, 174° | - | - |
| 1777986561 | 19.44° C | - | - | 0 mm | 0.89 m/s, 166° | - | - |
| 1777986256 | 18.89° C | - | - | 0 mm | 2.24 m/s, 187° | - | - |
| 1777985951 | 18.33° C | - | - | 0 mm | 0.89 m/s, 174° | - | - |
| 1777985642 | 17.78° C | - | - | 0 mm | 3.13 m/s, 127° | - | - |
| 1777985338 | 16.67° C | - | - | 0 mm | 1.79 m/s, 136° | - | - |
| 1777985033 | 16.67° C | - | - | 0 mm | 2.24 m/s, 121° | - | - |
| 1777984727 | 16.11° C | - | - | 0 mm | 2.68 m/s, 191° | - | - |
| 1777984423 | 16.11° C | - | - | 0 mm | 1.34 m/s, 165° | - | - |
| 1777984118 | 16.11° C | - | - | 0 mm | 2.24 m/s, 134° | - | - |
| 1777983811 | 16.11° C | - | - | 0 mm | 1.79 m/s, 138° | - | - |
* Rain latest hour (hover to see other rain measurements)
** Current wind speed in m/s (hover to see current wind gust speed)